Location: Newark
(43.9494°N, 6.8108°E)
Time: 08:29:16
(UTC+00:00)

ISS - Visible Passes

Search period start: 22 September 2019 00:00
Search period end: 02 October 2019 00:00
Orbit: 411 x 421 km, 51.6° (Epoch: 22 September)

Date Brightness Start Highest point End Pass type
(mag) Time Alt. Az. Time Alt. Az. Time Alt. Az.
22 Sep -2.6 19:23:09 10° W 19:26:18 39° NNW 19:26:55 35° N visible
23 Sep -3.2 18:34:28 10° WSW 18:37:44 56° NNW 18:40:31 14° NE visible
23 Sep -0.8 20:12:16 10° WNW 20:13:25 16° NW 20:13:25 16° NW visible
24 Sep -2.0 19:23:27 10° WNW 19:26:18 25° NNW 19:26:54 24° N visible
25 Sep -2.2 18:34:37 10° W 18:37:38 31° NNW 18:40:18 12° NE visible
25 Sep -0.6 20:12:27 10° NW 20:13:12 14° NW 20:13:12 14° NW visible
26 Sep -1.7 19:23:43 10° NW 19:26:21 21° N 19:26:33 21° N visible
27 Sep -1.8 18:34:54 10° WNW 18:37:38 23° N 18:39:51 13° NE visible
27 Sep -0.5 20:12:16 10° NW 20:12:44 13° NW 20:12:44 13° NW visible
28 Sep -2.0 17:46:03 10° WNW 17:48:54 26° NNW 17:51:46 10° NE visible
28 Sep -1.7 19:23:41 10° NW 19:26:00 22° N 19:26:00 22° N visible
29 Sep -1.8 18:35:00 10° NW 18:37:37 21° N 18:39:15 15° NE visible
29 Sep -0.3 20:11:50 10° NW 20:12:08 12° NW 20:12:08 12° NW visible
30 Sep -1.8 17:46:13 10° WNW 17:48:52 21° N 17:51:30 10° NE visible
30 Sep -1.9 19:23:19 10° NW 19:25:23 25° NNW 19:25:23 25° NNW visible
01 Oct -2.1 18:34:45 10° NW 18:37:34 24° NNE 18:38:38 20° NE visible
01 Oct -0.2 20:11:21 10° WNW 20:11:31 11° NW 20:11:31 11° NW visible
